Parkersburg, WV

6:08 AM EDT on October 15, 2019 (GMT -0400)
Wood County Wilson

Weather History for KPKB - August, 2019

Change the Weather History Date:

Friday, August 9, 2019

  Actual Average Record
Temperature  
Mean Temperature 71 °F 74 °F  
Max Temperature 83 °F 85 °F 98 °F (1930)
Min Temperature 59 °F 64 °F 48 °F (1989)
Degree Days  
Heating Degree Days 0 0  
Month to date heating degree days 0 0  
Since 1 June heating degree days 16 20  
Since 1 July heating degree days 0 1  
Cooling Degree Days 6 9  
Month to date cooling degree days 92 81  
Year to date cooling degree days 789 648  
Since 1 June cooling degree days 644 564  
Growing Degree Days 22 (Base 50)    
Moisture  
Dew Point 62 °F    
Average Humidity 71    
Maximum Humidity 100    
Minimum Humidity 42    
Precipitation  
Precipitation 0.00 in 0.13 in 3.26 in (1969)
Month to date precipitation 2.54 1.10  
Year to date precipitation 31.98 26.28  
Sea Level Pressure  
Sea Level Pressure 29.93 in    
Wind  
Wind Speed 4 mph (West)    
Max Wind Speed 17 mph    
Max Gust Speed 25 mph    
Visibility 8 miles    
Events Fog , Rain , Thunderstorm    
T = Trace of Precipitation, MM = Missing Value Source: NWS Daily Summary

Daily Weather History Graph

Daily Weather History Graph

Search for Another Location

Airport or City:

Astronomy

Aug. 09, 2019 Rise Set
Actual Time 6:32 AM EDT 8:29 PM EDT
Civil Twilight 6:03 AM EDT 8:58 PM EDT
Nautical Twilight 5:27 AM EDT 9:33 PM EDT
Astronomical Twilight 4:49 AM EDT 10:11 PM EDT
Moon 4:08 PM EDT (8/9) 1:29 AM EDT (8/9)
Length of Visible Light 14h 54m
Length of Day
13h 56m
Waxing Gibbous, 70% of the Moon is Illuminated
Aug 9
Waxing Gibbous
Aug 15
Full
Aug 23
Last Quarter
Aug 30
New
Sep 5
First Quarter

Hourly Weather History & Observations

Time (EDT) Temp. Heat Index Dew Point Humidity Pressure Visibility Wind Dir Wind Speed Gust Speed Precip Events Conditions
12:19 AM 66.9 °F - 64.9 °F 93% 29.92 in 1.8 mi Calm Calm - 0.06 in Rain Light Rain
12:31 AM 66.9 °F - 64.9 °F 93% 29.91 in 3.0 mi ESE 3.5 mph - 0.11 in Rain Light Rain
12:38 AM 66.9 °F - 64.9 °F 93% 29.92 in 6.0 mi ESE 3.5 mph - 0.11 in Rain , Thunderstorm Light Thunderstorms and Rain
12:53 AM 66.9 °F - 64.9 °F 93% 29.90 in 7.0 mi South 3.5 mph - 0.11 in Thunderstorm Overcast
1:04 AM 66.9 °F - 64.9 °F 93% 29.92 in 7.0 mi SE 4.6 mph - N/A   Overcast
1:53 AM 66.9 °F - 64.9 °F 93% 29.88 in 10.0 mi South 5.8 mph - N/A   Overcast
2:53 AM 66.9 °F - 64.9 °F 93% 29.88 in 10.0 mi South 6.9 mph - N/A   Overcast
3:53 AM 66.0 °F - 64.0 °F 93% 29.89 in 10.0 mi Calm Calm - N/A   Overcast
4:53 AM 66.0 °F - 64.0 °F 93% 29.89 in 10.0 mi Calm Calm - N/A   Overcast
5:53 AM 66.0 °F - 64.0 °F 93% 29.91 in 9.0 mi Calm Calm - N/A   Overcast
6:46 AM 64.9 °F - 63.0 °F 93% 29.94 in 0.8 mi SW 3.5 mph - N/A   Clear
6:53 AM 64.9 °F - 64.0 °F 97% 29.93 in 0.2 mi Calm Calm - N/A Fog Fog
7:01 AM 64.9 °F - 64.0 °F 97% 29.94 in 3.0 mi Calm Calm - N/A   Clear
7:50 AM 66.2 °F - 64.4 °F 94% 29.94 in 3.0 mi Calm Calm - N/A   Scattered Clouds
7:53 AM 66.9 °F - 64.9 °F 93% 29.93 in 3.0 mi Calm Calm - N/A   Scattered Clouds
8:53 AM 69.1 °F - 66.0 °F 90% 29.94 in 10.0 mi WNW 4.6 mph - N/A   Mostly Cloudy
9:49 AM 71.6 °F - 64.4 °F 78% 29.95 in 10.0 mi Calm Calm - N/A   Scattered Clouds
9:53 AM 72.0 °F - 64.9 °F 78% 29.94 in 10.0 mi Calm Calm - N/A   Scattered Clouds
10:53 AM 73.9 °F - 64.9 °F 73% 29.96 in 10.0 mi Variable 3.5 mph - N/A   Mostly Cloudy
11:53 AM 77.0 °F - 62.1 °F 60% 29.96 in 10.0 mi WSW 5.8 mph - N/A   Clear
12:53 PM 78.1 °F - 62.1 °F 58% 29.95 in 10.0 mi NW 5.8 mph - N/A   Mostly Cloudy
1:53 PM 77.0 °F - 60.1 °F 56% 29.94 in 10.0 mi West 12.7 mph - N/A   Scattered Clouds
2:53 PM 81.0 °F 81.1 °F 57.9 °F 45% 29.93 in 10.0 mi WNW 10.4 mph 20.7 mph N/A   Partly Cloudy
3:53 PM 82.0 °F 82.4 °F 60.1 °F 47% 29.91 in 10.0 mi North 10.4 mph - N/A   Partly Cloudy
4:53 PM 80.1 °F 80.4 °F 57.0 °F 45% 29.92 in 10.0 mi North 8.1 mph - N/A   Partly Cloudy
5:53 PM 80.1 °F 80.1 °F 55.0 °F 42% 29.92 in 10.0 mi Variable 6.9 mph - N/A   Partly Cloudy
6:53 PM 79.0 °F - 54.0 °F 42% 29.93 in 10.0 mi North 8.1 mph - N/A   Clear
7:53 PM 75.9 °F - 55.0 °F 48% 29.94 in 10.0 mi NNW 3.5 mph - N/A   Clear
8:53 PM 68.0 °F - 60.1 °F 76% 29.95 in 10.0 mi Calm Calm - N/A   Clear
9:53 PM 64.0 °F - 59.0 °F 84% 29.96 in 10.0 mi Calm Calm - N/A   Clear
10:53 PM 61.0 °F - 59.0 °F 93% 29.97 in 10.0 mi Calm Calm - N/A   Clear
11:53 PM 61.0 °F - 57.9 °F 90% 29.99 in 10.0 mi Calm Calm - N/A   Clear